{"data":{"norad_id":48375,"intl_designator":"2021-038Y","name":"STARLINK-2603","alt_names":[],"object_type":"PAYLOAD","status":"ACTIVE","operator":null,"country":"US","launch_date":"2021-05-04","launch_site_code":"AFETR","launch_vehicle":null,"mission":null,"orbit_class":"UNKNOWN","rcs_meters":null,"size_class":null,"mass_kg":null,"dimensions":null,"purposes":["comms"],"wikipedia_slug":null,"has_3d_model":false,"image_url":null,"decayed_at":null,"tle_current":{"epoch":"2026-09-19T07:42:38.604096Z","epoch_age_seconds":135494,"freshness":"FRESH","line1":"1 48375U 21038Y   26262.32128014  .00000386  00000+0  24217-4 0  9996","line2":"2 48375  53.1614 166.6763 0001060 115.2605 244.8507 15.31694799296899","mean_motion":15.31694799,"eccentricity":0.000106,"inclination_deg":53.1614,"raan_deg":166.6763,"arg_perigee_deg":115.2605,"mean_anomaly_deg":244.8507,"bstar":2.4217e-5,"rev_number":29689,"period_min":94.013507190867,"perigee_km":470.02951657497,"apogee_km":471.48148178479,"semimajor_km":6848.8924991799,"source":"CELESTRAK","updated_at":"2026-09-20T09:00:38.942866Z"}}}